Wind_Speed
38 39 40 40 40 39 37 36 35 33 32 31 29 28 27 25 25 23 21 21 19 17 16 14 13 11 9 8 9 9 11 12 13 13 13 13 13 14 15 16 17 18 19 21 21 21 22 22 21 20 19 19 18 17 16 16 16 16 15 15 16 14 14 14 11 12 20 22 21 23 24 24 25 26 26 28 29 29 27 27 27 29 31 32 31
33 34 34 36 39 39 38 36 35 34 32 31 29 28 27 26 26 25 23 22 21 18 16 15 13 10 9 8 8 9 11 12 12 12 12 13 13 14 15 15 17 18 19 20 20 19 20 22 22 21 20 20 20 19 18 17 17 17 17 15 15 15 13 14 14 12 16 21 22 22 22 20 22 25 26 28 30 29 27 27 27 28 29 29 30
31 31 31 32 34 36 37 37 35 34 33 31 29 28 27 26 26 26 25 23 21 18 16 14 11 9 7 7 8 10 11 11 10 10 11 12 13 14 15 16 17 17 18 18 18 18 19 20 21 21 21 21 22 21 20 19 17 16 17 16 16 17 15 13 15 14 15 20 22 21 20 20 20 22 25 27 30 29 28 27 28 28 28 28 28
34 36 36 35 32 30 31 34 35 35 33 31 29 27 26 25 26 25 25 23 20 18 15 13 9 7 7 7 9 10 10 9 9 11 12 13 15 16 16 17 17 17 17 17 17 17 18 19 19 20 20 20 21 21 20 20 19 17 18 18 18 19 18 14 14 15 16 19 21 19 18 20 20 21 22 25 27 28 28 28 28 29 29 28 28
34 36 36 34 32 30 28 28 31 33 33 30 28 26 25 25 25 24 23 20 19 17 15 12 9 8 7 8 9 9 8 8 10 12 14 15 16 17 17 18 18 18 17 17 17 17 17 18 19 18 19 19 20 21 21 20 20 20 20 20 20 20 20 17 15 15 16 18 22 22 19 19 21 22 21 22 24 25 26 28 29 30 29 29 29
32 31 31 31 31 31 30 28 27 28 29 29 27 25 24 24 24 23 20 18 17 15 13 11 9 8 8 9 9 7 7 8 11 12 14 15 16 17 18 18 19 19 19 19 18 17 17 17 18 18 18 19 20 21 22 21 21 21 21 21 20 19 20 19 18 17 17 18 21 24 22 19 19 22 21 21 23 24 24 25 27 29 29 29 30
31 29 30 31 32 32 32 32 31 29 28 27 26 24 24 24 23 21 18 17 15 13 12 10 9 9 9 9 7 6 7 9 11 13 14 16 17 18 19 20 20 20 20 20 19 19 18 18 18 19 18 19 20 21 22 22 21 21 20 20 20 19 19 20 20 19 18 18 19 22 22 19 18 20 21 21 21 22 22 23 24 27 28 28 30
27 29 29 30 33 33 34 34 34 33 32 29 26 25 24 23 22 19 17 16 14 12 11 11 10 10 9 7 5 6 8 9 11 13 14 16 17 19 20 21 22 23 23 22 22 21 20 20 20 21 21 21 21 22 22 23 23 24 23 22 22 23 22 22 22 21 19 18 19 21 22 20 18 18 21 20 18 18 20 21 23 26 27 27 29
25 27 29 30 31 32 33 34 34 34 33 31 29 27 25 23 21 18 17 14 13 12 12 11 11 10 7 5 5 5 6 8 10 12 14 16 17 19 21 22 23 25 25 25 24 23 22 22 22 22 23 23 22 23 24 24 25 26 26 25 25 25 24 23 22 21 20 18 19 20 21 20 18 16 18 18 16 17 21 20 22 26 26 24 25
26 27 30 31 31 32 33 34 34 34 34 32 31 29 27 24 21 19 16 14 14 13 13 12 11 8 5 3 4 4 6 8 10 12 14 16 18 20 22 23 24 25 26 26 26 25 24 24 24 24 24 24 24 25 25 26 26 26 27 27 26 25 24 23 22 21 20 19 19 19 18 18 18 17 18 19 19 21 22 20 20 22 20 16 18
24 27 31 32 32 32 33 34 35 37 36 35 34 32 28 26 24 20 18 16 15 15 14 12 10 7 5 4 4 5 6 9 11 14 16 18 20 21 23 24 25 25 26 26 27 27 26 26 26 26 26 26 26 26 26 27 27 27 27 28 28 27 26 25 24 22 21 20 20 20 19 19 20 19 19 21 22 23 24 22 20 19 17 12 11
22 26 29 31 31 32 32 33 34 35 36 37 35 32 30 28 26 22 20 18 17 16 14 12 9 6 5 4 5 5 7 11 13 16 18 19 21 22 24 25 26 26 26 27 28 28 28 28 28 27 27 27 27 27 27 27 27 27 28 28 29 29 29 28 28 27 24 22 22 22 22 22 23 22 20 19 20 22 23 22 20 19 18 16 13
23 25 28 29 30 31 32 33 33 33 33 33 30 29 30 29 26 23 21 19 18 17 15 11 8 6 5 4 4 6 8 11 14 17 19 21 22 23 24 26 27 27 27 28 28 29 29 29 28 28 27 27 27 27 27 27 27 27 28 29 29 29 29 30 31 30 30 28 27 27 27 25 26 26 23 19 20 22 22 21 20 20 20 20 20
24 26 28 30 31 32 33 35 37 36 34 31 30 31 31 28 25 22 21 20 19 17 14 10 8 6 5 4 5 6 8 11 15 18 21 23 23 23 24 26 28 28 29 29 29 29 29 29 29 29 28 27 27 27 27 27 27 28 29 29 30 30 29 29 30 30 32 32 32 33 32 30 29 30 26 22 22 23 23 23 22 22 23 24 24
25 27 29 31 31 31 32 33 34 35 36 36 35 33 30 26 24 22 21 20 18 15 12 10 8 6 4 4 4 5 7 12 16 19 22 24 23 23 24 26 28 29 30 30 30 30 29 29 29 29 29 28 27 26 26 26 27 29 30 31 31 31 31 30 29 30 31 32 33 34 34 33 32 33 30 27 25 23 22 22 22 23 25 24 23
26 27 28 28 27 28 28 25 22 24 29 33 33 32 28 24 22 21 20 18 16 13 11 9 7 5 5 4 4 5 8 13 16 19 22 24 24 23 25 27 29 30 30 30 30 29 28 28 28 29 29 29 28 27 27 27 29 30 32 32 32 33 33 32 30 31 31 33 34 35 36 35 33 31 29 27 25 23 23 25 25 24 22 20 19
26 27 27 27 26 27 26 24 21 21 25 26 27 27 25 22 21 21 20 18 16 13 11 8 6 5 5 5 5 7 10 13 16 19 21 23 23 24 26 27 29 30 31 31 30 29 28 27 27 28 29 29 28 28 27 27 29 31 32 32 32 33 33 31 30 31 31 32 35 36 37 37 37 36 36 34 33 30 28 29 27 23 20 16 13
26 27 27 28 28 28 28 28 29 29 29 28 26 24 21 21 21 20 19 17 15 12 9 7 7 7 6 6 8 10 11 13 16 18 21 23 24 24 26 28 29 31 32 32 30 29 29 28 26 27 29 29 28 28 28 28 30 31 31 31 32 32 31 30 30 31 31 31 33 34 35 36 36 37 38 39 37 35 32 30 27 22 20 17 13
26 27 28 29 30 30 31 32 33 31 31 30 28 24 23 23 21 19 16 14 12 10 8 8 9 9 7 8 11 12 13 14 16 19 22 24 24 25 27 29 30 32 32 32 30 29 28 28 27 27 29 30 30 31 31 31 33 33 31 30 30 31 30 30 31 32 31 31 32 32 32 33 33 34 35 35 35 34 34 35 31 26 23 21 19
26 27 28 30 32 33 34 36 36 34 32 30 27 26 25 23 20 17 14 12 10 8 8 10 10 9 9 11 13 14 15 15 17 20 22 24 26 26 27 29 31 33 32 31 30 30 29 29 30 30 31 32 32 33 33 33 34 35 33 31 31 31 30 31 32 32 32 32 32 31 32 32 32 33 33 33 31 29 30 32 33 30 27 24 24
26 26 26 28 31 33 36 38 37 35 33 30 27 25 22 19 16 14 12 10 9 9 10 11 11 10 11 13 15 16 16 16 18 21 24 26 27 27 28 30 31 33 33 31 31 32 32 32 32 32 31 32 32 32 33 33 34 35 35 34 35 35 34 34 34 33 33 33 32 32 32 31 31 31 32 32 30 27 26 27 30 31 29 27 26
25 25 24 24 26 28 33 36 35 32 31 29 27 23 18 15 13 12 10 9 9 10 11 12 12 12 13 14 16 19 19 18 20 23 26 28 29 29 30 31 32 33 34 32 31 33 34 34 34 33 33 33 34 34 34 34 35 37 38 38 38 38 37 37 36 34 34 33 32 31 31 30 29 28 29 29 28 27 26 27 28 30 31 30 28
24 26 25 25 26 29 33 35 34 32 29 26 24 20 17 15 13 11 10 10 10 11 12 12 12 13 15 16 18 21 21 20 22 25 28 30 32 33 32 32 32 32 33 34 34 35 35 35 35 35 35 36 36 36 37 37 38 40 41 41 41 40 39 38 36 34 33 32 31 30 29 29 28 28 28 29 29 28 28 28 28 29 30 31 31
25 27 27 28 29 30 32 33 31 29 26 23 22 20 18 16 14 13 12 11 11 11 11 12 13 14 16 18 21 23 23 22 23 27 30 32 33 34 33 32 31 31 32 34 35 35 36 36 37 38 38 39 40 40 41 41 42 43 43 43 42 41 39 37 34 32 31 30 30 30 29 28 28 28 29 29 29 29 29 28 27 27 28 29 29
27 29 31 32 32 31 31 30 28 27 24 23 21 20 19 17 14 13 12 11 10 9 10 11 13 15 17 20 24 25 24 23 25 29 31 32 33 32 32 32 31 30 32 33 34 34 36 38 39 39 40 40 40 40 40 41 42 43 43 43 42 40 38 36 33 31 30 29 28 29 29 29 28 28 27 27 27 27 27 28 27 27 27 28 28
28 29 32 34 34 33 32 30 30 29 26 23 21 19 17 14 11 10 10 9 8 8 9 11 13 16 18 22 25 25 23 24 27 30 32 32 32 32 33 32 31 30 31 33 34 34 36 36 37 37 38 39 38 38 38 39 40 40 40 40 39 38 37 36 34 32 31 29 28 29 30 29 28 28 27 26 27 28 28 28 27 27 27 27 27
31 31 33 33 32 33 32 31 30 29 26 23 20 16 12 10 8 8 8 7 7 7 9 12 15 17 21 23 24 22 22 24 27 30 32 32 32 33 33 32 31 31 32 33 33 33 33 34 35 36 37 38 37 37 37 38 38 38 38 37 37 37 37 36 36 34 33 31 30 31 31 28 27 27 26 26 28 29 29 27 27 26 26 24 24
35 35 34 31 29 30 31 30 28 26 23 19 16 12 9 7 6 5 4 3 4 6 9 12 15 18 21 22 20 19 21 24 27 30 32 32 33 33 32 31 32 32 33 33 33 33 32 33 33 33 33 33 32 32 31 32 33 34 35 35 35 35 36 36 35 34 34 33 31 30 29 27 26 26 26 26 27 28 28 27 27 26 25 23 22
35 35 33 29 26 26 27 26 25 22 19 14 11 9 8 7 6 5 3 1 2 5 8 12 15 18 20 19 17 17 20 23 28 31 32 32 32 32 31 32 33 33 33 33 32 31 30 28 28 27 26 26 26 26 26 26 27 29 31 32 32 32 32 32 32 33 33 32 30 29 27 26 25 24 24 25 26 27 27 27 26 25 25 24 23
30 29 27 25 23 22 22 21 20 18 16 14 12 10 9 8 6 4 2 1 3 6 9 13 17 19 20 20 18 17 19 24 30 33 32 31 30 30 31 31 32 32 31 30 28 27 25 23 23 23 22 22 22 21 22 23 23 24 26 27 28 29 30 30 31 32 32 31 30 29 27 25 23 23 24 24 25 25 26 26 26 25 25 24 22
27 25 25 24 23 22 22 22 21 19 17 15 13 11 10 9 7 5 4 2 3 6 10 13 15 17 18 19 19 18 20 26 31 32 30 29 29 29 30 31 31 29 28 27 26 24 21 20 21 21 21 21 20 20 21 22 22 22 23 24 25 26 27 28 29 30 29 29 28 28 27 26 24 24 25 25 24 23 24 25 26 26 26 25 23
26 25 26 26 26 25 25 25 24 21 17 15 13 11 11 10 7 4 3 1 3 6 7 8 9 11 13 15 16 17 21 27 30 29 28 27 28 28 29 30 29 27 25 24 23 21 19 20 20 20 20 21 20 21 22 22 22 22 22 22 22 23 25 28 28 28 27 27 27 27 27 26 26 26 27 26 24 22 23 24 25 25 25 24 22
25 25 26 28 29 29 28 26 24 21 19 16 14 12 11 9 7 5 2 1 3 4 5 5 8 10 11 11 12 15 21 26 28 27 27 26 26 27 28 29 27 25 23 21 20 19 20 20 20 21 22 22 22 22 23 22 22 23 22 21 21 22 24 26 26 27 27 27 27 27 27 27 27 27 26 26 24 22 22 23 23 23 22 19 19
25 27 29 31 31 30 28 26 24 21 19 16 13 12 10 8 6 3 0 3 4 5 6 7 9 11 10 10 12 16 22 26 27 26 26 25 25 26 27 27 26 25 23 21 20 20 21 21 21 22 23 23 23 23 23 23 23 23 23 22 21 21 23 23 23 25 27 27 27 27 27 27 27 25 24 23 23 21 21 22 22 21 20 19 19
27 30 31 31 30 28 26 26 23 21 18 15 13 12 9 7 5 2 1 2 5 6 6 7 9 11 11 12 15 18 22 27 27 26 25 25 25 25 25 25 25 25 24 23 22 22 22 22 22 23 24 24 24 24 23 24 24 23 23 24 23 21 20 20 22 24 26 26 26 27 27 26 26 26 24 22 21 20 19 20 21 21 20 20 21
30 31 29 27 26 25 25 24 22 19 17 14 12 10 7 6 5 2 1 3 5 6 6 6 8 10 11 13 15 17 22 27 28 26 26 25 24 24 23 22 23 23 23 23 23 23 23 23 24 24 25 24 24 24 24 24 24 23 23 23 23 22 20 18 19 22 24 25 26 26 26 25 25 25 24 22 21 20 20 20 20 20 21 22 22
30 29 26 24 23 24 24 23 20 17 15 14 11 8 6 5 2 3 3 4 5 5 5 6 8 10 12 13 15 18 22 27 28 28 27 26 25 23 22 22 22 22 23 23 24 24 24 25 25 25 25 25 24 24 24 24 24 23 22 21 20 19 19 18 17 19 21 24 25 25 25 24 24 24 23 20 19 19 19 20 21 21 23 26 26
27 25 24 23 23 23 23 20 17 15 14 12 10 7 5 2 2 4 4 5 5 5 5 5 7 9 12 14 16 18 22 27 29 30 28 27 26 24 23 23 23 22 22 23 24 24 24 25 26 26 26 25 25 24 24 24 23 22 20 18 16 15 14 14 14 14 17 20 23 24 24 24 23 24 23 21 19 19 20 22 23 23 24 25 25
24 22 21 20 19 19 19 17 15 13 11 9 7 4 1 2 4 3 5 6 5 4 4 5 7 8 11 13 15 18 21 25 27 27 27 27 26 25 24 24 23 24 24 25 25 25 25 26 26 26 26 26 25 25 24 23 22 20 18 16 14 11 9 8 8 8 10 13 17 20 22 22 22 22 22 22 22 23 23 24 26 27 26 25 24
22 20 18 16 15 15 16 15 13 10 8 5 3 0 2 3 2 5 7 6 5 3 3 4 6 8 10 12 14 17 19 22 24 24 24 26 26 26 25 24 24 25 26 26 26 27 27 26 27 27 26 26 25 25 24 22 21 19 17 14 12 10 7 4 2 4 7 10 14 17 19 21 21 22 22 23 25 26 27 27 28 30 30 29 29
21 20 17 15 14 14 14 12 10 7 5 4 2 3 3 3 5 7 7 6 5 4 4 4 5 8 10 11 13 15 17 19 22 24 24 24 25 25 26 25 25 25 26 27 27 28 27 27 27 27 26 26 25 25 24 22 20 18 16 14 12 9 7 4 1 5 9 12 15 18 20 23 24 24 24 25 26 27 29 29 29 30 31 32 32
20 19 17 16 16 14 13 12 10 8 8 7 7 8 7 6 7 8 7 5 4 4 4 4 5 7 9 11 12 14 16 18 21 24 25 24 24 24 25 25 25 25 25 26 27 27 27 27 27 27 26 26 25 25 24 22 20 19 17 15 13 11 9 7 5 7 11 14 17 19 21 23 25 26 27 27 28 28 28 29 30 31 32 32 33
18 18 17 17 17 16 15 14 12 11 12 11 11 10 8 7 8 7 6 5 5 4 4 4 4 5 7 9 11 13 15 16 18 22 24 24 24 24 25 25 25 25 25 26 26 26 26 27 27 27 26 26 25 24 23 22 20 19 17 15 14 12 11 9 8 9 12 16 18 19 21 23 25 28 29 29 29 30 30 30 30 31 32 32 32
19 19 19 19 19 18 17 15 14 14 14 13 12 11 9 9 8 7 7 7 7 7 8 7 6 6 7 9 11 13 15 15 15 18 22 24 24 24 24 24 24 25 26 25 25 26 26 27 27 27 27 26 25 23 22 21 20 19 17 16 15 13 12 11 10 10 14 18 19 20 22 24 26 28 30 30 31 31 31 31 31 31 31 31 31
21 21 21 21 20 19 18 16 15 14 13 13 13 12 11 10 10 9 9 9 9 9 10 10 9 9 10 11 12 14 15 14 13 15 19 22 23 23 23 23 24 25 25 25 24 25 26 26 27 27 28 27 26 24 23 21 20 18 17 16 16 15 13 11 11 12 16 19 21 22 23 25 26 27 28 29 31 31 31 31 32 32 31 30 29
24 23 22 21 21 19 18 16 14 13 13 13 13 12 12 11 10 10 9 9 10 10 10 11 11 12 12 13 14 14 15 14 14 14 16 19 21 22 21 22 24 25 24 23 23 24 25 25 26 27 27 27 26 25 24 22 20 19 18 16 15 14 13 12 13 15 18 20 22 23 24 25 26 27 28 28 30 31 31 31 31 31 31 30 29
23 23 22 21 20 19 17 15 14 14 13 13 12 12 11 10 9 9 9 9 9 10 10 11 12 13 14 14 15 15 15 15 14 13 14 16 19 20 19 21 25 26 25 23 22 23 24 25 25 26 26 26 26 25 24 23 21 20 19 17 16 15 14 14 15 17 19 21 23 25 26 27 27 28 29 30 30 31 31 31 30 31 31 31 30
21 21 21 20 19 18 17 15 14 14 13 12 12 12 11 10 9 9 9 9 9 9 10 11 12 13 14 14 15 16 16 16 16 15 13 13 16 17 17 19 23 26 26 24 22 22 23 24 25 25 26 26 26 25 24 23 22 21 20 19 18 17 17 17 18 20 22 23 25 26 27 28 28 29 30 31 31 31 32 32 31 32 32 31 30
21 21 20 19 19 18 17 15 14 13 12 12 12 11 10 10 10 10 10 10 10 10 10 11 12 13 14 14 15 16 16 17 18 18 15 13 13 15 15 17 21 24 25 24 22 22 22 22 23 24 25 25 25 25 25 24 23 23 22 20 19 18 19 21 22 23 24 25 27 28 28 29 29 30 30 31 32 32 33 33 32 32 32 31 30
21 21 20 19 18 17 16 15 14 13 12 12 12 11 11 10 10 10 10 10 11 11 11 12 12 13 13 14 15 15 16 17 18 19 17 14 13 12 13 14 18 21 23 23 23 22 22 21 22 23 24 24 25 26 26 25 24 23 22 20 20 20 22 23 25 26 27 28 29 29 30 31 31 31 31 31 32 33 33 32 32 32 32 31 30
20 19 18 18 17 16 15 14 14 13 12 12 11 11 10 9 9 10 10 11 11 12 12 12 12 12 12 13 13 14 15 17 17 17 18 16 13 12 11 12 14 17 19 21 22 23 23 22 23 23 24 25 25 25 25 25 24 23 22 21 21 22 23 25 26 28 29 30 31 31 32 32 32 32 32 32 32 33 33 32 32 31 31 30 30
Wind_Direction
208 210 211 211 212 213 214 215 215 216 218 219 218 217 215 214 213 211 212 213 213 216 221 228 235 243 253 270 286 296 301 304 305 306 310 314 314 315 318 320 320 321 322 324 326 327 325 324 324 326 327 325 323 323 322 321 322 320 318 315 306 302 302 300 296 295 295 297 301 301 299 290 282 281 280 276 274 272 269 267 268 270 272 273 269
211 212 214 214 214 214 214 214 214 214 216 218 216 214 212 211 210 208 207 207 209 214 218 222 227 237 252 271 284 290 292 292 293 298 305 308 311 315 320 321 321 322 324 325 328 329 328 325 324 327 328 325 322 321 319 318 319 318 317 318 312 305 302 297 294 295 297 300 304 307 307 296 285 284 283 280 280 279 274 268 266 267 270 271 269
214 214 217 219 219 217 215 213 212 211 213 215 214 212 210 208 207 205 203 202 204 209 212 213 217 230 248 264 273 279 281 282 287 296 304 308 313 316 319 320 320 320 321 321 323 324 323 322 322 323 325 323 320 319 319 318 317 315 314 314 312 308 305 298 292 292 295 297 300 306 310 306 296 293 290 284 281 280 275 270 265 265 268 269 269
216 215 215 218 220 220 218 214 210 209 211 213 213 211 209 206 204 202 200 199 199 199 201 204 212 226 239 251 260 265 266 272 286 299 305 309 313 315 315 315 314 314 315 316 318 316 313 313 316 318 317 316 315 315 316 316 315 313 310 310 309 307 306 302 293 290 291 293 295 300 307 310 306 302 299 291 283 277 273 269 265 264 266 267 268
219 216 214 213 213 216 218 215 211 209 209 210 210 209 207 204 201 199 197 196 195 194 196 202 212 223 234 243 247 248 256 276 293 302 308 311 312 312 313 312 311 310 310 310 313 313 309 305 307 311 310 308 307 308 309 309 309 308 306 306 305 304 304 302 297 292 291 293 294 295 298 304 305 304 304 301 293 282 274 267 263 262 263 264 264
221 218 214 210 210 212 211 210 211 210 209 208 207 206 205 202 198 196 195 195 195 196 199 204 212 223 232 234 234 243 269 292 302 306 310 311 311 311 311 310 309 308 307 308 308 309 306 300 301 304 303 302 302 303 304 304 303 302 301 301 301 301 300 300 300 296 292 292 291 291 293 296 300 299 301 306 300 287 277 271 265 261 258 259 260
223 221 216 211 210 210 209 206 206 208 209 207 204 201 201 200 196 195 195 195 196 199 203 208 216 222 223 223 232 264 290 300 306 309 310 310 310 309 309 309 308 307 306 307 306 305 303 298 297 298 296 295 296 297 298 300 299 298 297 298 298 298 297 297 298 296 292 290 287 289 290 289 290 290 293 304 302 286 276 271 266 262 257 256 258
229 225 221 214 210 209 208 206 204 204 204 202 197 194 194 195 196 195 195 194 197 203 209 214 214 212 213 225 257 287 299 303 307 308 309 310 310 309 309 308 307 306 305 304 303 301 300 298 297 296 296 294 291 291 291 292 294 293 292 293 293 294 293 292 292 290 288 287 285 286 288 286 285 284 286 295 297 288 281 272 264 264 262 259 258
237 230 225 220 216 211 207 206 203 200 197 193 189 188 188 191 194 195 194 195 199 206 212 213 208 204 212 241 274 288 295 300 306 310 312 314 314 312 310 308 306 305 303 302 301 298 297 296 296 296 295 294 291 290 288 287 288 288 288 289 289 288 288 286 285 284 283 282 281 282 283 281 280 280 280 283 284 289 293 281 265 264 264 260 257
240 232 228 226 221 214 208 205 200 194 190 188 186 184 184 187 190 192 194 197 201 205 207 205 202 207 219 241 260 275 291 303 311 315 316 317 314 310 308 306 305 304 303 301 299 297 296 294 294 293 292 291 290 289 289 288 286 284 283 284 284 284 284 282 280 279 278 277 275 276 277 276 275 272 270 273 277 286 293 288 272 266 263 258 257
246 235 230 227 222 214 207 201 195 190 187 187 186 183 180 183 186 189 193 196 200 203 203 202 204 212 220 234 257 277 299 314 322 323 320 317 312 309 307 306 305 303 302 300 298 296 295 293 293 292 290 289 288 287 287 287 285 283 280 278 278 279 279 279 278 276 274 272 272 270 269 271 274 271 269 272 275 279 284 285 278 267 257 248 252
254 239 230 224 217 210 203 196 190 186 184 184 184 180 178 181 184 186 189 192 197 200 201 203 206 213 227 245 267 290 314 329 334 334 329 324 318 313 310 308 307 304 302 300 298 296 295 293 291 289 287 287 286 285 285 284 283 282 280 278 277 275 273 272 274 274 272 271 271 269 266 268 271 270 268 271 274 276 278 280 275 264 252 243 240
257 241 229 220 212 205 200 194 188 185 182 181 183 180 177 178 180 183 187 191 195 197 198 201 204 213 231 247 276 308 329 339 343 343 338 331 323 315 311 309 307 305 303 301 299 296 294 292 290 287 285 284 284 283 282 281 281 280 280 279 278 276 272 269 269 270 269 269 268 266 265 266 268 268 267 268 271 270 270 271 270 264 255 250 249
255 238 226 218 210 203 199 194 190 186 183 182 183 182 179 177 178 182 186 188 191 192 193 197 202 211 232 258 291 316 333 341 344 345 341 335 326 316 311 308 305 303 302 300 298 295 292 290 289 287 286 284 282 281 279 279 279 279 279 278 277 276 274 270 268 267 266 265 264 264 264 263 264 266 267 267 267 265 264 266 268 266 262 260 261
253 236 224 217 209 202 198 194 189 185 181 179 180 179 177 174 174 179 184 186 189 191 191 196 201 212 242 271 290 311 326 334 342 346 345 340 331 318 310 306 303 301 300 298 296 293 291 290 288 287 286 284 282 279 277 277 277 277 277 276 275 275 273 271 269 267 264 263 262 263 265 265 264 265 265 265 264 264 265 267 271 275 271 263 258
249 234 222 213 206 200 195 190 187 180 172 171 173 173 171 170 171 176 182 184 186 188 188 196 207 223 241 252 267 289 309 326 339 346 348 344 335 323 313 306 302 299 297 295 294 292 291 289 287 286 285 284 282 279 276 276 275 275 275 274 274 274 272 272 272 270 267 265 263 262 264 264 264 263 262 261 261 264 270 274 279 282 272 253 243
245 231 219 209 202 197 190 180 172 163 159 163 169 167 164 167 173 179 182 181 183 187 192 201 215 225 224 224 248 276 299 324 339 345 347 345 337 326 317 308 302 298 294 293 292 291 290 288 286 285 284 282 281 280 278 276 274 273 274 274 274 273 272 273 275 273 271 269 266 265 264 264 263 262 262 263 263 266 271 274 277 273 258 242 233
242 228 215 205 197 192 186 176 167 162 163 169 169 163 163 172 179 183 183 181 183 189 197 208 215 214 213 226 251 274 299 322 335 340 343 343 338 328 320 310 303 298 295 293 291 290 289 287 284 281 280 280 280 279 278 276 275 274 273 274 273 271 271 274 276 276 275 273 271 269 266 265 264 263 263 263 262 263 262 261 263 257 245 239 236
243 227 214 203 195 189 183 175 168 165 168 170 168 167 174 178 177 178 181 183 188 194 203 215 216 210 216 241 261 279 300 316 327 334 339 341 337 330 321 312 303 299 296 294 293 290 288 286 283 280 280 280 280 278 277 275 275 275 274 273 271 269 271 274 275 276 276 274 271 269 266 265 263 262 262 261 260 259 255 252 253 250 243 238 235
248 230 215 202 192 187 181 173 168 168 171 171 169 170 171 170 170 175 183 189 194 203 216 224 222 219 231 254 270 283 296 309 322 330 336 338 335 329 321 310 302 299 297 295 293 291 288 285 284 282 281 281 281 279 277 274 273 273 271 268 267 269 273 275 273 273 273 270 269 267 265 264 262 259 259 259 259 256 250 245 244 244 243 239 233
251 231 214 201 191 183 176 169 165 167 169 168 165 163 162 163 169 177 183 188 197 212 226 229 229 236 249 263 277 287 295 307 319 328 333 334 333 328 318 309 303 299 297 294 292 290 288 286 286 285 284 283 281 279 277 274 272 271 268 265 265 268 271 272 271 270 269 268 267 265 262 261 258 254 253 252 251 250 248 245 245 245 246 243 236
243 221 206 195 185 175 168 165 164 164 163 159 156 155 156 158 164 172 180 190 208 223 230 232 238 250 260 272 285 291 295 303 314 325 331 331 330 327 318 311 306 299 294 291 290 289 288 287 287 286 285 284 282 279 277 274 272 270 267 265 266 267 267 267 267 266 265 264 264 262 258 255 252 249 246 245 245 247 250 252 252 252 251 250 246
224 205 192 181 173 166 162 161 159 157 154 151 149 149 153 160 167 179 192 206 222 230 233 238 247 259 270 283 296 297 295 299 311 323 329 329 328 325 318 311 306 299 291 289 289 289 288 288 288 288 288 287 284 281 278 275 273 270 268 266 266 265 265 264 262 261 261 260 260 258 254 251 247 245 245 245 248 252 254 255 256 255 255 256 255
199 185 173 165 158 152 150 150 148 146 145 146 147 148 156 171 182 193 204 216 225 230 240 248 254 266 278 290 300 300 296 299 309 320 327 328 325 321 315 309 305 300 293 290 289 289 289 290 291 291 290 289 286 283 280 276 273 271 269 268 266 264 262 259 257 256 255 254 253 253 251 249 245 244 245 246 249 252 253 255 257 255 255 256 258
177 166 157 150 145 141 143 147 146 143 143 149 156 161 170 179 189 200 211 220 226 236 251 260 266 276 284 291 297 296 294 300 309 319 325 325 320 317 313 310 306 302 296 293 292 292 292 293 293 293 292 290 288 285 280 277 274 272 270 268 266 262 258 255 252 250 249 247 247 248 249 247 245 245 246 246 248 250 251 254 257 256 255 255 257
159 151 145 142 142 147 152 155 152 150 152 159 166 171 176 180 190 205 214 219 230 249 266 276 283 286 288 291 293 292 294 301 309 318 323 321 317 316 315 313 309 306 302 299 298 298 297 296 295 294 292 290 287 283 279 276 275 273 271 268 264 259 254 250 247 244 243 243 243 244 246 246 245 244 244 244 245 246 248 251 254 254 254 253 254
146 141 140 143 152 158 160 159 157 159 164 169 171 171 172 180 196 208 213 221 240 261 275 283 286 288 291 293 293 291 294 301 310 319 322 320 318 319 318 316 314 311 308 306 304 302 300 298 297 295 292 290 288 284 281 277 275 272 269 265 260 255 251 247 243 240 240 240 240 242 244 244 241 238 237 238 241 245 247 247 248 249 249 247 243
142 141 145 153 162 164 162 161 162 164 168 170 170 170 171 176 185 187 191 220 257 278 287 290 293 295 296 295 293 291 294 303 315 322 323 321 321 321 320 319 317 314 311 309 308 305 303 301 300 297 294 292 290 287 284 279 275 271 266 262 257 252 249 246 242 239 239 239 239 240 240 237 234 231 233 237 240 244 245 243 241 243 242 234 226
138 143 151 157 160 161 160 162 164 165 163 155 148 151 157 156 155 157 159 197 312 310 304 301 304 303 299 295 291 288 293 308 323 327 325 324 324 322 321 320 318 316 314 314 312 309 306 303 300 298 295 293 290 289 286 282 278 273 268 262 256 251 246 242 238 236 236 235 236 236 234 231 228 227 230 236 239 242 243 240 237 237 232 223 214
134 143 153 157 157 156 156 158 158 154 146 140 139 145 152 152 147 139 126 49 329 318 307 303 304 301 295 292 292 291 301 320 330 331 329 328 327 325 324 323 322 320 320 320 317 311 305 303 301 299 298 296 294 292 291 289 285 281 276 267 258 249 244 239 235 234 234 232 232 233 232 230 228 227 229 233 237 239 240 239 235 229 220 211 204
140 150 160 162 159 153 147 144 141 137 135 142 149 150 149 150 144 118 93 56 342 325 314 308 307 302 294 290 291 296 311 327 333 333 331 331 329 328 327 326 326 326 326 324 317 309 305 304 304 303 302 300 298 297 297 296 295 294 290 278 262 250 243 238 236 234 232 230 230 231 230 229 228 228 229 230 233 235 236 235 231 221 211 204 197
155 161 164 162 157 150 143 138 137 138 143 150 151 147 146 150 151 134 108 40 337 336 332 327 329 327 313 298 292 303 322 333 336 336 335 334 332 331 330 330 330 330 330 325 317 311 310 309 307 307 307 305 304 304 303 302 303 305 301 285 266 251 243 240 238 234 229 228 228 228 227 226 226 228 229 228 228 228 227 225 219 209 202 198 192
163 159 154 150 148 145 143 141 143 146 148 146 144 143 147 153 156 153 141 353 350 360 4 9 10 2 344 319 309 322 337 342 342 342 341 339 337 335 334 333 334 335 332 325 317 314 315 314 311 311 311 309 308 309 308 307 310 312 307 294 275 260 251 246 241 233 228 226 226 225 224 224 224 226 228 225 222 221 219 214 208 199 190 182 175
154 150 146 144 144 144 144 146 147 146 143 142 143 146 146 146 146 149 336 351 13 22 26 25 14 2 351 341 340 345 349 350 349 348 346 344 343 340 337 336 338 340 338 331 324 320 319 318 316 316 316 315 314 314 313 314 316 316 313 307 297 280 264 251 240 232 228 226 224 223 223 222 221 223 224 220 216 214 211 204 195 186 176 167 160
146 146 146 145 144 145 147 148 146 144 144 144 144 142 141 146 158 175 306 3 29 28 29 28 14 358 350 349 351 352 355 355 354 352 350 350 348 345 342 340 340 340 338 335 331 327 325 323 322 322 322 320 319 318 317 318 319 318 316 315 311 299 279 257 241 234 229 225 223 223 222 221 220 219 217 213 207 204 201 194 186 177 168 159 152
142 142 144 145 146 148 150 149 146 145 144 140 137 137 143 160 170 160 37 63 62 39 26 23 13 359 353 352 353 354 358 359 358 356 355 355 353 350 346 342 339 336 333 333 333 331 330 329 327 326 326 324 323 322 322 322 323 323 321 318 313 305 293 273 252 239 230 224 222 221 220 218 215 212 209 205 202 200 195 185 177 169 160 151 145
141 142 144 146 149 151 153 151 147 141 137 136 141 153 164 167 147 45 46 82 78 49 26 16 8 358 355 357 356 355 359 2 2 1 360 359 357 353 348 343 340 336 332 333 335 335 334 334 333 332 331 329 328 328 328 328 328 329 327 322 313 304 296 286 270 252 237 227 222 219 216 214 211 207 202 197 193 190 183 172 163 156 151 148 144
140 141 143 145 148 150 150 148 142 140 143 152 163 170 169 165 13 22 73 103 85 56 37 23 8 353 351 357 358 356 358 2 3 2 1 359 356 353 349 346 343 339 336 336 338 338 338 338 338 338 336 335 334 335 335 335 335 335 332 327 317 305 296 289 280 264 247 233 224 217 213 209 206 202 196 187 177 169 163 156 149 143 141 141 141
139 141 142 143 144 145 146 146 147 151 160 171 177 176 182 344 0 49 112 114 89 63 53 37 16 358 354 357 357 356 358 1 2 0 359 357 355 352 349 347 345 343 341 342 343 343 343 343 342 341 340 340 341 342 342 342 342 342 339 333 326 317 306 294 279 257 236 222 212 206 201 197 193 189 183 174 165 157 151 148 145 141 139 138 138
138 137 136 134 136 142 147 150 153 156 159 163 172 232 338 358 51 116 127 116 93 81 71 45 23 10 4 1 359 357 358 360 1 360 358 357 354 351 349 348 348 347 345 345 347 347 347 347 346 345 344 345 347 348 350 351 351 351 350 346 342 340 335 320 272 201 181 176 176 176 175 173 171 168 164 160 157 153 148 146 145 143 141 139 136
134 131 129 127 133 143 148 147 146 143 135 125 103 79 78 96 121 133 129 111 92 81 72 54 30 16 10 6 3 360 359 1 3 2 1 359 356 352 350 349 350 350 349 349 350 351 351 351 351 349 349 351 353 355 357 359 1 1 1 1 1 5 14 23 93 148 149 149 150 152 154 155 154 153 150 149 149 148 145 143 143 141 139 137 135
133 130 126 125 132 139 138 135 134 127 115 106 99 96 99 116 133 139 133 111 89 77 71 59 37 17 8 3 359 357 357 3 6 5 3 2 360 356 353 351 351 353 354 354 355 354 354 355 355 354 354 356 359 1 3 6 8 10 11 12 16 23 35 49 84 124 134 138 141 143 144 147 147 145 144 144 143 141 140 138 138 137 136 135 134
132 126 121 122 126 128 124 122 120 114 107 102 99 96 97 111 126 129 117 90 71 62 57 51 37 15 358 349 348 351 353 1 8 8 6 4 3 0 357 354 353 356 359 1 1 1 360 360 0 360 1 3 7 9 11 13 16 19 20 23 28 34 44 58 80 110 124 130 134 137 138 138 137 137 139 140 139 137 136 135 135 134 134 134 133
124 120 119 119 118 117 116 115 114 110 106 102 99 95 93 96 102 99 85 74 64 55 49 42 32 18 3 354 356 359 359 2 9 10 8 7 6 4 2 1 359 360 1 4 7 7 6 5 5 6 8 11 15 19 21 23 26 29 30 32 37 41 48 61 78 103 121 126 128 130 131 132 132 133 134 136 135 133 133 133 133 133 133 133 132
117 116 116 114 112 111 111 111 111 109 107 103 99 94 90 89 87 82 76 71 62 55 52 46 38 30 21 14 14 13 7 5 10 11 10 10 9 7 7 6 5 3 3 6 9 11 11 11 10 11 13 16 19 24 27 29 34 39 41 43 47 50 55 68 87 106 119 124 125 126 126 127 128 129 130 132 132 131 131 132 132 131 131 131 130
114 114 112 110 108 107 106 107 108 107 104 100 96 91 86 83 79 74 71 68 63 57 52 47 42 37 28 22 23 21 16 11 10 10 10 11 11 12 11 8 6 5 5 7 11 14 16 16 16 17 18 20 23 27 31 34 39 45 49 53 59 63 70 84 100 109 115 119 121 123 123 123 124 126 127 127 127 126 127 128 129 129 129 129 128
108 108 107 107 107 105 104 105 105 102 98 95 90 86 82 77 71 67 63 61 59 55 50 47 45 39 29 23 22 22 19 16 13 11 10 10 13 15 14 10 8 9 9 10 13 17 20 21 23 23 24 26 28 30 34 38 43 49 53 58 66 74 83 94 103 108 112 116 118 120 120 119 120 122 123 123 123 122 122 123 124 125 126 126 126
102 102 104 105 105 105 104 103 101 97 93 89 84 79 72 62 53 46 42 39 39 39 38 39 38 33 28 22 19 17 17 17 16 15 13 12 14 16 15 12 12 13 13 13 16 20 23 25 27 28 30 32 33 35 38 41 47 53 58 63 70 79 90 96 100 104 109 113 114 116 116 117 117 118 119 119 120 120 120 120 120 121 123 123 124
100 100 101 101 101 102 101 98 93 87 81 78 74 66 55 45 35 27 22 21 22 22 22 22 24 23 21 17 13 11 12 13 14 14 14 14 15 15 15 14 14 15 17 18 20 23 26 28 30 32 34 36 38 40 42 45 49 55 62 69 76 84 92 96 99 102 106 108 109 110 111 112 113 114 115 116 117 117 117 117 118 119 120 121 122
96 96 97 96 96 96 93 88 82 74 69 68 65 56 46 38 29 22 18 17 17 17 15 13 13 13 13 12 9 7 8 10 10 10 12 14 15 14 14 15 17 18 21 24 27 28 29 31 33 35 38 40 41 43 46 49 52 57 65 73 82 88 93 96 99 102 104 105 105 106 107 108 108 109 110 111 113 113 113 114 115 116 118 119 121
90 90 90 88 87 84 81 77 72 67 63 62 59 53 47 40 31 24 22 21 18 15 12 8 6 6 7 6 4 4 6 7 6 7 10 14 15 14 14 15 18 22 26 30 34 36 36 38 40 41 42 43 44 45 47 51 55 60 67 76 84 90 94 96 98 101 104 105 105 105 105 105 105 105 106 107 109 110 111 113 115 116 117 119 120
Height
775 777 778 780 783 784 786 789 791 793 795 796 797 798 800 802 804 807 808 810 812 813 815 816 817 818 818 819 819 819 819 819 819 818 818 817 817 816 815 814 813 813 812 811 811 810 809 809 809 810 810 809 809 809 809 808 808 807 807 807 807 807 807 806 804 799 796 796 795 793 793 793 792 793 793 793 793 793 794 793 793 793 792 791 791
775 777 780 781 781 782 783 786 788 791 793 795 796 797 798 800 802 804 806 808 810 812 814 815 816 817 818 818 819 819 819 819 819 819 818 818 817 816 815 814 813 812 811 810 810 809 808 807 806 807 807 807 807 807 806 806 806 805 805 805 804 804 805 804 802 799 795 793 793 792 791 791 790 789 790 789 789 790 790 790 790 789 789 789 789
774 776 779 781 782 782 782 784 786 788 791 793 794 796 797 799 800 802 804 806 809 811 812 814 815 816 817 818 818 819 819 819 819 819 818 818 817 816 815 814 813 812 811 810 809 808 807 806 805 805 805 804 804 804 804 804 804 803 802 802 802 801 802 802 801 799 795 792 791 790 789 789 788 787 787 787 786 787 787 787 787 787 786 786 786
769 771 772 775 779 782 783 783 784 786 789 791 794 796 797 799 800 801 803 805 807 809 810 812 814 815 816 817 818 818 819 819 819 819 818 818 817 816 815 814 813 811 810 809 808 808 807 806 805 804 804 803 802 802 802 802 802 801 800 800 800 799 798 799 798 797 795 791 789 789 788 787 786 785 785 784 784 784 784 784 784 784 784 784 784
767 767 768 770 774 777 781 783 785 785 787 790 793 796 797 799 800 801 803 805 806 808 809 810 812 813 814 815 816 817 818 818 818 818 818 817 816 816 815 813 812 811 810 808 807 806 805 804 804 804 803 802 801 800 800 800 800 799 799 798 797 797 796 796 796 795 794 791 787 786 786 786 784 783 783 782 781 780 781 781 781 781 781 781 781
766 766 766 768 770 772 775 779 783 786 787 788 791 794 797 799 800 801 803 804 806 807 808 809 810 811 812 813 814 815 816 817 817 817 817 816 816 815 814 813 811 810 809 807 806 805 804 803 802 802 802 801 800 799 798 798 798 797 797 796 795 795 794 793 793 792 792 790 787 784 783 784 783 781 780 781 780 778 778 778 779 779 779 778 778
764 764 764 764 765 768 770 772 777 781 785 787 789 792 795 797 799 801 802 803 805 807 808 808 809 809 811 812 813 814 814 815 815 815 815 815 814 814 812 811 810 808 807 806 805 804 803 802 801 800 800 799 798 797 797 796 796 795 795 794 794 793 792 791 791 790 789 788 786 783 781 781 781 779 778 778 778 777 776 776 775 775 776 776 776
764 763 763 762 762 764 766 769 770 773 778 782 785 788 792 795 798 800 801 802 804 805 806 807 807 808 809 810 811 812 813 813 813 813 813 813 813 812 811 810 808 806 805 804 803 802 800 800 799 798 798 797 796 796 795 794 793 792 792 793 792 791 790 789 788 788 787 785 784 781 779 778 779 778 777 776 776 775 774 774 773 772 773 773 773
763 763 763 762 762 762 764 766 768 770 773 776 779 782 786 791 795 797 799 801 802 804 805 806 806 807 807 808 809 810 811 811 811 812 811 811 811 810 809 808 806 804 803 801 800 799 798 797 796 795 795 794 794 793 792 792 791 790 789 790 789 789 788 787 786 785 784 783 781 780 777 775 775 776 775 774 774 773 773 773 771 771 771 771 771
760 761 760 761 761 761 762 762 764 766 769 773 775 777 780 785 790 794 797 798 800 802 803 804 805 805 806 807 808 808 809 809 809 809 809 809 808 807 806 805 804 802 800 798 797 796 795 794 793 792 791 791 790 789 789 788 788 787 787 786 786 786 785 784 783 783 782 780 779 778 775 772 773 774 773 772 772 771 770 771 770 769 770 769 769
757 757 757 757 758 759 759 760 761 762 764 768 771 771 773 778 783 788 792 795 798 800 801 802 803 803 804 805 805 806 807 807 807 807 807 806 806 804 803 802 801 800 798 796 794 793 791 790 789 788 788 787 786 785 785 784 783 783 783 783 783 783 782 781 780 780 779 777 775 775 773 770 770 771 770 770 770 769 768 769 768 768 768 768 767
755 754 754 754 755 756 757 758 760 760 761 765 767 767 769 774 779 783 787 791 795 797 799 800 801 801 802 803 804 804 805 805 805 805 804 803 803 801 800 799 798 797 796 794 792 790 788 787 785 784 784 783 782 781 780 780 779 779 778 778 778 778 779 778 777 776 776 774 772 771 770 768 767 767 768 768 768 767 766 766 766 766 766 766 765
752 752 752 752 752 754 755 756 758 760 761 765 768 769 769 772 776 780 784 788 791 794 796 797 798 799 800 801 802 803 803 803 803 802 801 800 800 798 797 796 795 794 793 791 789 787 785 783 781 780 780 779 778 778 776 775 774 774 773 773 772 772 773 774 773 773 772 771 769 767 766 767 765 763 765 767 766 765 764 764 764 764 764 763 762
750 749 749 749 750 751 752 753 754 755 758 762 767 770 770 771 775 779 783 786 789 792 794 795 796 797 798 799 800 801 801 801 800 800 798 797 796 795 794 793 792 791 789 788 786 784 782 780 777 776 776 775 775 774 773 771 770 769 768 767 767 767 767 768 768 769 768 767 765 762 762 764 762 760 762 764 764 763 762 761 762 761 761 760 760
748 747 747 747 748 749 751 752 753 753 754 758 764 768 770 770 774 778 783 785 787 790 792 794 795 795 796 797 799 799 799 799 798 797 795 794 793 792 791 790 789 787 786 784 782 780 778 776 774 772 771 771 771 770 769 768 766 764 763 762 761 761 761 762 763 763 763 762 761 758 758 759 759 758 759 760 761 760 760 759 759 759 758 757 757
745 745 745 745 746 748 750 752 754 756 756 758 763 766 767 770 774 778 782 784 786 788 790 792 793 793 794 795 797 797 797 796 795 794 792 791 790 789 788 786 785 783 781 780 778 776 774 773 770 769 768 767 767 766 766 765 763 760 758 756 756 755 755 756 757 757 757 757 756 755 754 754 755 755 755 756 757 757 757 756 755 756 756 754 753
743 742 743 743 744 746 747 749 753 757 759 762 765 765 766 770 774 778 780 783 785 787 789 790 790 791 792 794 794 795 795 794 793 791 789 788 787 786 784 782 781 779 777 775 774 771 770 769 767 765 763 763 762 762 762 761 758 756 754 752 751 750 749 751 752 751 752 751 750 750 750 750 750 750 750 751 752 754 755 753 752 753 753 750 749
741 741 741 741 742 743 745 746 749 753 756 761 764 764 766 771 775 778 780 782 784 786 787 788 788 789 790 791 792 792 792 791 790 788 787 786 784 783 781 779 777 775 772 770 769 767 765 764 763 762 759 758 758 758 758 757 754 752 750 748 746 744 744 746 747 746 746 746 745 744 744 744 744 744 745 745 747 750 751 749 749 750 749 746 746
739 739 739 740 740 741 743 745 747 750 753 758 760 762 766 770 774 778 780 781 783 785 785 786 786 787 788 789 789 789 788 788 787 786 785 784 782 781 779 776 774 771 768 766 764 762 761 759 758 758 755 754 754 753 753 753 750 747 746 745 741 738 740 742 742 741 741 740 739 739 738 738 739 739 739 740 741 744 744 743 745 746 744 743 743
737 739 739 739 739 739 741 742 744 747 753 757 760 762 766 769 773 777 779 780 781 783 783 784 785 785 786 786 786 786 785 784 784 783 782 781 780 779 777 775 771 767 765 762 760 757 756 754 753 752 751 750 749 748 747 747 745 743 742 740 736 734 736 738 737 737 736 734 734 734 733 733 733 733 734 734 735 737 737 738 739 740 739 739 739
736 737 739 739 739 738 739 740 742 746 751 755 759 763 766 769 773 775 777 778 779 780 781 783 783 783 783 784 784 783 782 781 781 781 780 779 779 777 775 772 769 765 761 759 756 753 751 749 747 747 746 744 743 743 741 741 740 737 735 734 732 731 733 732 731 732 731 729 729 729 728 728 727 727 728 729 730 731 732 733 734 735 735 734 734
733 734 736 738 739 740 740 740 743 747 752 755 758 763 767 770 772 775 776 776 777 778 780 781 781 781 781 781 781 780 780 779 779 778 778 777 776 774 772 769 766 763 758 755 752 749 746 744 742 741 740 739 737 737 735 734 734 731 729 728 727 728 728 727 726 727 725 724 724 723 722 722 722 722 723 723 725 727 728 729 729 730 730 730 731
730 731 733 736 738 739 740 741 744 748 752 756 759 763 767 770 772 774 775 775 776 777 778 779 779 779 778 778 778 777 777 777 777 777 776 774 772 770 768 765 763 761 756 751 748 745 741 739 737 735 734 733 732 730 729 728 727 724 722 722 722 723 723 722 721 721 720 719 719 717 716 717 717 717 718 718 720 722 724 725 725 726 726 726 726
727 728 731 734 737 738 740 743 747 750 754 757 760 763 766 769 771 772 773 774 775 776 776 776 776 776 775 775 775 775 775 776 776 775 773 771 769 766 764 761 759 756 753 748 744 740 737 734 732 730 729 727 725 724 722 721 719 717 716 716 716 717 717 715 715 715 713 713 712 710 710 711 711 711 712 714 716 718 719 720 721 721 721 721 721
725 727 730 733 736 739 743 747 749 751 755 758 760 763 765 767 769 771 772 773 774 774 774 773 773 773 773 773 773 773 774 774 774 773 771 769 766 763 760 757 754 752 748 744 740 737 733 730 727 725 723 720 718 716 714 713 711 709 708 709 709 709 709 708 708 708 706 705 705 704 704 705 706 707 708 710 712 713 714 715 716 717 717 717 717
725 728 731 733 737 742 746 748 748 750 754 758 760 762 764 765 768 769 771 772 772 771 771 771 772 772 772 772 772 772 773 773 772 771 768 765 762 758 755 752 749 746 743 739 735 732 728 725 723 720 717 715 712 710 708 705 703 702 701 701 701 701 701 701 701 700 699 698 698 698 698 700 701 703 704 706 707 708 709 710 711 712 712 713 713
725 729 732 736 741 744 746 747 748 750 753 757 760 762 763 765 767 768 770 770 770 769 770 771 771 771 771 771 771 772 772 771 770 768 765 761 757 753 750 747 744 741 738 734 731 727 724 721 718 715 712 709 707 704 702 699 697 695 694 693 693 693 692 692 693 692 692 692 692 692 693 695 697 698 699 700 701 702 704 705 706 706 707 709 709
724 728 733 739 743 745 745 746 748 751 754 757 759 761 762 764 766 767 768 768 768 769 770 770 771 771 771 771 771 771 771 770 768 765 761 757 753 750 747 743 740 737 733 730 727 723 720 717 714 711 708 705 701 699 696 694 691 689 687 686 685 685 685 685 686 686 686 686 687 688 689 690 691 692 694 695 696 697 699 700 701 701 703 704 704
725 729 735 740 743 744 746 747 750 752 755 757 759 761 762 764 765 766 767 767 768 769 770 770 771 771 771 771 771 770 769 767 765 762 759 755 751 748 744 741 738 734 731 727 724 720 716 713 710 707 704 701 698 695 692 689 687 684 682 680 679 679 679 679 679 679 680 681 682 683 684 685 686 687 689 690 691 693 694 695 696 697 698 699 699
729 733 737 740 743 745 746 748 751 753 756 758 760 761 763 764 764 765 766 767 768 769 770 771 771 771 771 770 770 769 767 765 762 759 756 752 749 746 742 739 735 732 728 725 721 718 714 711 708 705 702 699 695 692 689 686 683 679 677 675 674 673 673 673 673 673 674 676 677 678 680 681 682 683 685 686 687 688 690 691 692 692 693 694 695
733 737 740 742 744 745 746 748 751 754 757 760 761 761 762 763 764 765 766 767 769 770 770 771 771 770 770 769 768 767 766 763 760 756 753 749 746 743 740 736 733 729 726 722 719 715 712 709 705 702 699 696 693 689 686 683 679 676 672 670 669 668 668 667 668 669 670 672 673 674 675 677 678 679 680 681 683 684 685 687 687 687 688 689 691
736 739 741 743 744 745 746 749 752 755 758 760 760 760 761 762 764 766 767 768 769 770 770 770 770 769 769 768 767 766 765 762 758 754 751 747 744 741 737 734 730 727 724 721 717 714 710 707 703 700 697 693 690 687 683 680 676 672 669 666 664 663 663 663 663 665 666 667 668 670 671 672 674 675 676 677 679 680 681 682 683 683 684 686 688
737 738 740 742 743 745 747 750 754 756 758 758 759 759 761 763 764 766 767 768 769 769 769 769 769 768 767 767 766 765 763 760 756 752 749 745 742 739 735 732 728 725 722 719 716 712 708 705 701 698 694 691 687 684 680 677 673 669 667 664 661 660 659 658 659 661 662 662 664 665 666 668 670 671 672 673 674 676 677 679 680 680 682 684 686
737 738 740 741 744 746 749 751 754 756 756 757 758 760 761 763 764 766 767 768 768 768 768 768 767 767 766 766 765 764 762 758 755 751 747 744 741 737 734 730 727 724 721 718 714 711 707 703 699 696 692 688 685 681 677 674 670 667 664 661 659 657 656 656 656 657 657 659 660 661 662 664 666 667 669 670 671 673 674 675 677 678 679 681 685
738 739 740 743 745 748 750 752 753 755 756 757 758 760 761 763 765 766 767 767 767 767 767 767 766 766 765 764 764 762 760 757 753 750 746 743 740 736 733 729 725 722 719 717 713 709 706 702 698 694 690 686 683 679 675 671 668 665 662 659 656 654 653 653 653 653 654 655 656 657 658 660 662 663 665 667 668 670 672 673 674 676 678 680 684
738 740 742 744 746 748 750 751 753 754 755 757 758 760 762 763 764 765 765 765 765 765 765 766 766 765 764 764 763 761 759 756 752 749 745 742 739 736 732 729 726 722 719 716 712 708 704 700 696 692 689 685 681 677 674 670 666 663 661 658 655 652 651 650 650 650 650 651 652 653 655 657 658 660 662 664 666 668 670 672 673 675 677 680 684
739 741 743 745 747 748 750 752 753 754 755 757 758 760 762 763 764 764 764 764 764 764 765 765 765 764 764 763 762 760 758 755 752 748 744 741 738 736 733 729 726 723 719 715 711 707 703 699 695 691 687 684 680 676 672 669 665 662 659 657 654 651 649 648 647 647 647 647 648 650 651 653 655 657 659 661 664 666 668 670 672 675 678 680 684
741 742 744 746 747 749 750 752 753 755 756 758 759 761 761 762 762 762 763 763 763 764 764 765 765 764 763 762 761 759 757 754 750 746 743 740 737 735 732 729 726 723 719 715 711 707 702 698 694 691 687 683 679 676 672 668 665 661 659 656 653 651 648 646 645 644 644 644 645 646 648 651 653 655 657 660 662 665 668 670 672 675 679 683 685
742 744 745 747 748 749 750 752 754 756 757 759 760 760 761 761 761 761 762 763 763 764 764 765 764 764 763 762 760 758 756 753 749 746 743 740 737 734 732 729 725 722 718 714 710 707 702 698 694 691 687 683 679 675 672 668 664 661 659 656 653 651 648 646 645 643 642 642 643 644 646 649 651 653 656 659 661 664 667 670 672 675 679 684 687
744 745 747 748 749 750 752 754 756 757 758 759 759 759 760 760 760 761 762 763 764 764 764 764 764 764 763 761 760 758 756 753 750 746 743 740 737 734 731 728 725 722 718 714 710 707 703 699 695 692 688 684 680 676 672 668 665 662 659 656 653 651 649 647 646 644 643 643 643 644 646 648 650 653 656 658 661 663 666 669 672 675 679 683 687
745 747 748 749 751 752 754 756 757 758 758 758 758 759 759 760 761 762 763 763 764 764 764 764 764 763 762 761 759 758 756 753 750 747 744 741 738 735 732 729 726 722 719 715 711 708 704 700 696 693 689 685 681 677 673 669 666 663 660 657 655 652 650 649 647 646 645 644 645 646 647 648 650 653 656 659 662 664 667 670 673 677 680 684 687
746 748 749 750 752 753 755 756 757 757 758 758 758 760 761 761 762 763 763 764 764 763 763 763 763 762 762 761 759 757 755 753 751 747 744 742 739 736 733 729 726 723 720 716 713 709 705 701 698 694 690 686 682 678 674 671 667 664 662 659 657 654 652 651 650 649 647 647 648 648 649 650 651 653 656 659 662 665 668 671 675 678 681 685 688
748 749 750 751 753 754 755 756 757 757 758 758 760 761 762 763 763 764 764 764 763 763 763 762 762 762 761 760 759 757 755 753 750 748 745 742 739 737 734 731 727 724 721 718 714 711 707 703 699 696 692 688 684 680 677 673 670 667 664 661 659 657 655 653 652 651 650 650 650 651 652 653 654 655 658 660 663 666 669 673 677 680 684 687 690
749 750 752 753 754 755 755 756 757 758 759 760 761 762 763 764 764 764 764 764 764 763 763 762 761 761 760 759 758 756 754 752 750 748 745 742 740 738 735 732 729 725 722 719 715 712 709 705 701 697 694 690 686 682 679 676 673 669 667 664 661 660 658 656 655 655 654 653 654 654 655 656 657 658 660 662 665 668 672 675 679 683 686 689 693
751 752 753 754 755 756 757 758 759 760 761 762 763 763 764 765 765 765 765 764 764 763 763 762 761 761 760 759 757 755 754 752 750 748 746 743 741 739 736 733 730 727 724 720 717 713 710 707 703 699 696 692 688 685 681 678 675 672 670 667 665 663 661 660 659 658 657 657 657 658 659 660 661 662 664 666 668 671 674 677 681 684 688 692 695
753 754 755 756 757 758 759 760 762 763 763 764 764 765 765 766 766 766 766 765 764 764 763 762 761 760 760 759 757 755 754 752 750 748 746 744 742 739 737 735 732 728 725 722 719 715 712 709 705 702 698 695 691 688 684 681 679 676 673 671 669 667 665 664 663 662 661 661 661 662 662 664 665 667 668 670 672 674 677 680 684 687 691 695 698
754 755 757 757 758 760 761 763 764 764 765 765 766 766 766 767 767 767 766 765 765 764 763 762 761 760 760 759 757 756 754 752 750 748 746 744 742 740 738 736 733 730 727 724 721 718 714 711 708 705 702 698 695 691 688 685 682 680 677 675 673 671 669 668 667 666 665 665 665 666 667 668 670 671 672 674 676 678 681 684 688 691 694 698 702
757 758 759 760 761 762 764 765 766 766 767 767 767 767 768 768 768 768 767 766 765 764 763 762 761 760 759 759 758 756 755 753 751 749 747 745 743 741 739 737 735 732 729 726 723 720 717 714 711 708 705 702 698 695 692 689 686 684 681 679 677 675 674 672 671 671 670 670 670 671 671 672 674 676 677 679 681 683 685 688 692 695 698 702 706
760 761 762 763 764 765 766 767 768 769 769 769 769 769 769 770 770 770 769 768 766 765 764 762 761 760 760 759 758 757 755 753 751 749 747 745 744 742 740 739 737 734 731 728 725 723 720 717 714 711 709 706 703 700 696 694 691 688 686 684 682 681 679 677 677 676 676 676 676 676 677 678 679 681 682 684 686 688 690 693 696 699 703 706 709
763 764 765 766 767 768 768 769 770 771 771 770 770 770 771 772 772 772 771 769 767 766 765 763 762 761 760 759 759 757 756 754 753 751 749 747 745 743 742 740 739 737 734 731 728 725 723 720 718 715 712 710 707 704 701 698 696 694 692 690 688 686 685 683 682 682 681 681 682 682 683 684 685 687 688 690 691 693 695 698 701 704 707 710 714
767 768 769 769 770 770 771 771 772 772 773 772 772 772 773 773 773 773 772 770 768 767 766 764 763 762 761 760 759 758 757 755 754 752 750 748 746 744 743 742 740 739 737 734 731 729 726 724 721 719 716 714 711 709 706 704 701 699 697 695 693 692 690 690 689 688 687 687 688 688 689 690 691 692 694 695 697 698 701 703 706 709 712 715 718